Regional Weather Roundup
Issued by NWS

Home | Current Version | Previous Version | Graphics & Text | Print | Product List | Glossary On
Versions: 1 2 3 4 5 6 7 8 9 10 11 12 13 14 15 16 17 18 19 20 21 22 23 24 25 26 27 28 29 30 31 32 33 34 35 36 37 38 39 40 41 42 43 44 45 46 47 48 49 50
000
ASUS44 KMEG 250000
RWRTN
TENNESSEE HOURLY STATE WEATHER ROUNDUP
NATIONAL WEATHER SERVICE MEMPHIS TN
600 PM CST WED DEC 24 2014

TNZ002-004-019-021-049-052-054-088>092-250100-
WEST TENNESSEE

CITY           SKY/WX    TMP DP  RH WIND       PRES   REMARKS
MEMPHIS INTL   CLOUDY    42  37  82 W9        29.90R
NWS MEMPHIS      N/A     41 N/A N/A MISG        N/A
JACKSON        CLOUDY    42  34  73 W10       29.87R
DYERSBURG      CLOUDY    43  28  56 W8        29.87R
UNION CITY     CLOUDY    37  36  93 SW6       29.82R WCI  33
PARIS          CLOUDY    39  34  81 W10       29.82R WCI  32
LEXINGTON      CLOUDY    41  37  87 SW6       29.83R
SAVANNAH       MOCLDY    43  37  81 W6        29.87R
$$

TNZ008-025-027-028-033-062-065-066-250100-
NORTH MIDDLE TENNESSEE

CITY           SKY/WX    TMP DP  RH WIND       PRES   REMARKS
NASHVILLE      DRIZZLE   46  39  76 W6        29.80R
CLARKSVILLE    LGT RAIN  42  37  82 W14       29.80R
COOKEVILLE     MOCLDY    45  43  93 SW5       29.77R
CROSSVILLE     CLOUDY    42  38  85 W9G17     29.75R
$$

TNZ061-075-076-078-094-096-097-250100-
SOUTH MIDDLE TENNESSEE

CITY           SKY/WX    TMP DP  RH WIND       PRES   REMARKS
FAYETTEVILLE   CLOUDY    43  39  87 MISG      29.81R
TULLAHOMA      CLOUDY    43  41  93 SW3       29.80R
WINCHESTER     CLOUDY    45  43  93 W6        29.81R
SHELBYVILLE    CLOUDY    46  43  87 W6        29.81R
$$

TNZ017-018-042-046-047-250100-
NORTHEAST TENNESSEE

CITY           SKY/WX    TMP DP  RH WIND       PRES   REMARKS
TRI CITIES     CLOUDY    57  52  83 SW21G40   29.63R
ELIZABETHTON   PTCLDY    61  52  72 W23G51    29.63R SQUALL
$$

TNZ012-013-036-069-073-074-250100-
CENTRAL EAST TENNESSEE

CITY           SKY/WX    TMP DP  RH WIND       PRES   REMARKS
KNOXVILLE      CLOUDY    48  44  86 SW13      29.76R
OAK RIDGE      CLOUDY    47  40  76 W12G21    29.77R
GATLINBURG     CLOUDY    46  43  87 W8        29.73R
$$

TNZ083-085-099-250100-
SOUTHEAST TENNESSEE

CITY           SKY/WX    TMP DP  RH WIND       PRES   REMARKS
CHATTANOOGA    CLOUDY    49  40  71 W10       29.80R
$$

SKY/WX REPORTED AS FAIR MEANS FEW OR NO CLOUDS BELOW
12 THOUSAND FEET.




USA.gov is the U.S. government's official web portal to all federal, state and local government web resources and services.